Regional Weather Roundup
Issued by NWS

Home | Current Version | Previous Version | Graphics & Text | Print | Product List | Glossary On
Versions: 1 2 3 4 5 6 7 8 9 10 11 12 13 14 15 16 17 18 19 20 21 22 23 24 25 26 27 28 29 30 31 32 33 34 35 36 37 38 39 40 41 42 43 44 45 46 47 48 49 50
000
ASUS43 KTOP 272059
RWRKS

WEATHER ROUNDUP FOR KANSAS
NATIONAL WEATHER SERVICE GOODLAND KS
300 PM CST SAT DEC 27 2014

NOTE:  "FAIR" INDICATES FEW OR NO CLOUDS BELOW 12,000 FEET WITH NO
SIGNIFICANT WEATHER AND/OR OBSTRUCTIONS TO VISIBILITY.

KSZ001>006-013>018-027>032-041>047-272200-
NORTHWEST KANSAS

CITY           SKY/WX    TMP DP  RH WIND       PRES   REMARKS
GOODLAND       SUNNY     27  16  63 NW10      30.16F WCI  17
HAYS           SUNNY     30  12  47 NW9       30.25S
HILL CITY      SUNNY     28  17  63 NW9       30.24S
RUSSELL        SUNNY     30  18  60 NW7       30.25S
$$

KSZ061>065-074>080-084>089-272200-
SOUTHWEST KANSAS

CITY           SKY/WX    TMP DP  RH WIND       PRES   REMARKS
DODGE CITY     SUNNY     34  17  50 NW12      30.23F WCI  25
ELKHART          N/A     34  14  43 NW9         N/A
GARDEN CITY    SUNNY     31  16  54 W10       30.22F WCI  22
GREAT BEND     SUNNY     32  18  55 NW12      30.26F WCI  23
LIBERAL        SUNNY     34  18  51 NW9       30.26S
$$

KSZ066>073-081>083-090>101-272200-
SOUTHEAST KANSAS

CITY           SKY/WX    TMP DP  RH WIND       PRES   REMARKS
CHANUTE        PTSUNNY   34  21  59 NW12      30.25R WCI  25
COFFEYVILLE    FLURRIES  34  22  61 NW13      30.26R WCI  25
HUTCHINSON     MOSUNNY   33  16  49 W13       30.27R WCI  24
MEDICINE LODGE   N/A     36  17  46 N9        30.27R
NEWTON         SUNNY     34  16  47 NW14      30.27R WCI  24
PARSONS        PTSUNNY   34  22  61 NW8       30.26R
WICHITA INTL   MOSUNNY   36  17  46 N12       30.27S WCI  28
WICHITA JABRA  MOSUNNY   33  17  51 NW10      30.26S WCI  25
WINFIELD       SUNNY     36  17  46 NW10      30.28S WCI  28
$$

KSZ007>012-019>026-033>040-048>060-102>105-272200-
NORTHEAST KANSAS

CITY           SKY/WX    TMP DP  RH WIND       PRES   REMARKS
CONCORDIA      SUNNY     30  18  60 NW9       30.25R
EMPORIA        MOSUNNY   33  17  51 NW14G21   30.24R WCI  23
LAWRENCE       MOSUNNY   33  19  56 NW12      30.25R WCI  24
MANHATTAN      SUNNY     31  18  58 VRB6      30.27R
OLATHE IND     PTSUNNY   31  21  66 NW10      30.23S WCI  22
OLATHE EXE     PTSUNNY   32  21  64 NW12      30.22R WCI  23
SALINA         SUNNY     33  16  49 NW13      30.27F WCI  24
TOPEKA BILLARD SUNNY     36  19  50 W9G21     30.25R
TOPEKA FORBES  SUNNY     35  18  49 NW13      30.24R WCI  26
$$


USA.gov is the U.S. government's official web portal to all federal, state and local government web resources and services.